This is the latest recevied weather packets stored in our database for station/object WK1F-2. If no packets are shown the sender has not sent any weather packets the latest 1 day(s).
| Time | Temp. | Humidity | Pressure | Rain* | Wind** | Luminosity | Snow |
|---|---|---|---|---|---|---|---|
| 1778023646 | 22.22° C | 63% | 1015.2 hPa | 0 mm | 3.13 m/s, 145° | - | - |
| 1778023346 | 22.22° C | 63% | 1015.2 hPa | 0 mm | 4.02 m/s, 143° | - | - |
| 1778023046 | 22.22° C | 63% | 1015.2 hPa | 0 mm | 2.68 m/s, 180° | - | - |
| 1778022746 | 22.78° C | 62% | 1015.1 hPa | 0 mm | 1.79 m/s, 77° | - | - |
| 1778022446 | 22.78° C | 62% | 1015.1 hPa | 0 mm | 1.79 m/s, 197° | - | - |
| 1778022146 | 22.78° C | 62% | 1015.1 hPa | 0 mm | 2.24 m/s, 147° | - | - |
| 1778021846 | 22.78° C | 62% | 1015 hPa | 0 mm | 1.79 m/s, 79° | - | - |
| 1778021546 | 22.78° C | 62% | 1015 hPa | 0 mm | 4.02 m/s, 140° | - | - |
| 1778021246 | 22.78° C | 62% | 1015.2 hPa | 0 mm | 3.58 m/s, 159° | - | - |
| 1778020946 | 22.78° C | 62% | 1015.1 hPa | 0 mm | 5.36 m/s, 95° | - | - |
| 1778020646 | 22.78° C | 60% | 1015.1 hPa | 0 mm | 4.02 m/s, 118° | - | - |
| 1778020346 | 23.33° C | 58% | 1015.1 hPa | 0 mm | 4.47 m/s, 147° | - | - |
| 1778020046 | 23.33° C | 58% | 1015.1 hPa | 0 mm | 3.13 m/s, 81° | - | - |
| 1778019746 | 23.33° C | 57% | 1015.1 hPa | 0 mm | 2.68 m/s, 78° | - | - |
| 1778019446 | 23.33° C | 57% | 1015.1 hPa | 0 mm | 1.34 m/s, 117° | - | - |
| 1778019146 | 23.89° C | 57% | 1015 hPa | 0 mm | 1.79 m/s, 120° | - | - |
| 1778018846 | 23.89° C | 57% | 1015.1 hPa | 0 mm | 2.68 m/s, 117° | - | - |
| 1778018546 | 23.89° C | 57% | 1015.2 hPa | 0 mm | 4.02 m/s, 76° | - | - |
| 1778018246 | 23.89° C | 56% | 1015.1 hPa | 0 mm | 4.02 m/s, 111° | - | - |
| 1778017946 | 23.89° C | 54% | 1015.2 hPa | 0 mm | 4.02 m/s, 83° | - | - |
| 1778017646 | 23.89° C | 54% | 1015.2 hPa | 0 mm | 4.92 m/s, 118° | - | - |
| 1778017346 | 23.89° C | 54% | 1015.3 hPa | 0 mm | 4.92 m/s, 144° | - | - |
| 1778017045 | 23.89° C | 54% | 1015.2 hPa | 0 mm | 0.89 m/s, 213° | - | - |
| 1778016745 | 23.89° C | 53% | 1015.3 hPa | 0 mm | 6.26 m/s, 117° | - | - |
| 1778016445 | 24.44° C | 53% | 1015.3 hPa | 0 mm | 4.47 m/s, 145° | - | - |
* Rain latest hour (hover to see other rain measurements)
** Current wind speed in m/s (hover to see current wind gust speed)